When you browse on this site, cookies collect data to enhance your experience and personalize the content and advertising you see.
Visit our Privacy Policy to learn more. By continuing to use the site, you agree to this use of cookies and data.
  • în România
  • Lista ţărilor
  • Pe 7 zile
  • Temperatura apei
  • Hartă satelitară
  • Meteo pe hartă
  • Widget-uri
  • user-avatar
    Intrare

    Meteo pe oră la Eger

    Astăzi, 18 Ianuarie, Vineri

    Timp Temperatura Precipitaţii Vânt Presiune Umiditate
    00:00 +3°C° 0.1 mm 3 m/s 740 mmHg 92%
    01:00 +4°C° 0 mm 2 m/s 740 mmHg 93%
    02:00 +4°C° 0.1 mm 2 m/s 740 mmHg 94%
    03:00 +4°C° 0.1 mm 2 m/s 740 mmHg 94%
    04:00 +3°C° 0.1 mm 2 m/s 740 mmHg 95%
    05:00 +2°C° 0.1 mm 3 m/s 740 mmHg 94%
    06:00 +2°C° 0.1 mm 3 m/s 740 mmHg 92%
    07:00 +2°C° 0 mm 3 m/s 740 mmHg 91%
    08:00 +3°C° 0 mm 3 m/s 741 mmHg 88%
    09:00 +3°C° 0 mm 3 m/s 741 mmHg 85%
    10:00 +3°C° 0 mm 3 m/s 742 mmHg 82%
    11:00 +4°C° 0 mm 4 m/s 742 mmHg 77%
    12:00 +4°C° 0 mm 4 m/s 742 mmHg 72%
    13:00 +3°C° 0 mm 5 m/s 743 mmHg 68%
    14:00 +2°C° 0 mm 5 m/s 743 mmHg 68%
    15:00 +2°C° 0 mm 5 m/s 743 mmHg 69%
    16:00 +1°C° 0 mm 5 m/s 744 mmHg 70%
    17:00 0°C° 0 mm 4 m/s 744 mmHg 71%
    18:00 -1°C° 0 mm 4 m/s 745 mmHg 72%
    19:00 0°C° 0 mm 3 m/s 745 mmHg 73%
    20:00 -1°C° 0 mm 2 m/s 746 mmHg 76%
    21:00 -1°C° 0 mm 2 m/s 746 mmHg 80%
    22:00 +1°C° 0 mm 1 m/s 747 mmHg 83%
    23:00 +1°C° 0 mm 1 m/s 747 mmHg 84%

    Mâine, 19 Ianuarie, Sâmbătă

    Timp Temperatura Precipitaţii Vânt Presiune Umiditate
    00:00 +1°C° 0 mm 1 m/s 748 mmHg 85%
    01:00 0°C° 0 mm 0 m/s 748 mmHg 87%
    02:00 +1°C° 0 mm 1 m/s 748 mmHg 87%
    03:00 +1°C° 0 mm 1 m/s 748 mmHg 87%
    04:00 +1°C° 0 mm 1 m/s 748 mmHg 88%
    05:00 0°C° 0 mm 1 m/s 749 mmHg 86%
    06:00 0°C° 0 mm 1 m/s 749 mmHg 84%
    07:00 0°C° 0 mm 1 m/s 749 mmHg 83%
    08:00 -2°C° 0 mm 2 m/s 749 mmHg 77%
    09:00 -1°C° 0 mm 2 m/s 749 mmHg 70%
    10:00 -1°C° 0 mm 2 m/s 749 mmHg 64%
    11:00 +1°C° 0 mm 2 m/s 749 mmHg 61%
    12:00 +1°C° 0 mm 2 m/s 749 mmHg 58%
    13:00 +2°C° 0 mm 2 m/s 748 mmHg 55%
    14:00 +1°C° 0 mm 2 m/s 748 mmHg 59%
    15:00 -1°C° 0 mm 2 m/s 748 mmHg 63%
    16:00 -1°C° 0 mm 2 m/s 748 mmHg 67%
    17:00 -2°C° 0 mm 2 m/s 747 mmHg 68%
    18:00 -2°C° 0 mm 2 m/s 747 mmHg 69%
    19:00 -2°C° 0 mm 2 m/s 747 mmHg 71%
    20:00 -2°C° 0 mm 2 m/s 747 mmHg 68%
    21:00 -2°C° 0 mm 2 m/s 747 mmHg 66%
    22:00 -2°C° 0 mm 2 m/s 747 mmHg 64%
    23:00 -2°C° 0 mm 2 m/s 747 mmHg 65%

    Poimâine, 20 Ianuarie, Duminică

    Timp Temperatura Precipitaţii Vânt Presiune Umiditate
    00:00 -2°C° 0 mm 2 m/s 746 mmHg 66%
    01:00 -2°C° 0 mm 2 m/s 746 mmHg 67%
    02:00 -2°C° 0.2 mm 2 m/s 746 mmHg 71%
    03:00 -2°C° 0.2 mm 3 m/s 745 mmHg 75%
    04:00 -4°C° 0.2 mm 3 m/s 745 mmHg 80%
    05:00 -3°C° 0.1 mm 2 m/s 745 mmHg 80%
    06:00 -3°C° 0.1 mm 2 m/s 745 mmHg 81%
    07:00 -3°C° 0.1 mm 2 m/s 744 mmHg 82%
    08:00 -3°C° 0.3 mm 2 m/s 744 mmHg 83%
    09:00 -2°C° 0.3 mm 2 m/s 744 mmHg 84%
    10:00 -2°C° 0.3 mm 2 m/s 744 mmHg 85%
    11:00 -2°C° 0.3 mm 2 m/s 744 mmHg 85%
    12:00 0°C° 0.3 mm 1 m/s 744 mmHg 85%
    13:00 +1°C° 0.3 mm 1 m/s 744 mmHg 85%
    14:00 +1°C° 0.1 mm 1 m/s 744 mmHg 86%
    15:00 0°C° 0.1 mm 0 m/s 744 mmHg 88%
    16:00 0°C° 0.1 mm 0 m/s 744 mmHg 89%
    17:00 -1°C° 0.1 mm 0 m/s 744 mmHg 90%
    18:00 -1°C° 0.1 mm 0 m/s 744 mmHg 91%
    19:00 -1°C° 0.1 mm 0 m/s 744 mmHg 92%
    20:00 0°C° 0 mm 1 m/s 745 mmHg 92%
    21:00 0°C° 0 mm 1 m/s 745 mmHg 92%
    22:00 0°C° 0 mm 1 m/s 746 mmHg 91%
    23:00 0°C° 0 mm 1 m/s 746 mmHg 91%

    21 Ianuarie, Luni

    Timp Temperatura Precipitaţii Vânt Presiune Umiditate
    00:00 0°C° 0 mm 1 m/s 746 mmHg 90%
    01:00 0°C° 0 mm 1 m/s 747 mmHg 90%
    02:00 0°C° 0 mm 1 m/s 747 mmHg 89%
    03:00 0°C° 0 mm 1 m/s 747 mmHg 88%
    04:00 0°C° 0 mm 1 m/s 747 mmHg 87%
    05:00 -1°C° 0 mm 1 m/s 748 mmHg 85%
    06:00 -1°C° 0 mm 1 m/s 748 mmHg 83%
    07:00 -2°C° 0 mm 1 m/s 749 mmHg 81%
    08:00 -1°C° 0 mm 1 m/s 749 mmHg 73%
    09:00 -2°C° 0 mm 2 m/s 749 mmHg 65%
    10:00 -1°C° 0 mm 2 m/s 750 mmHg 57%
    11:00 -1°C° 0 mm 2 m/s 750 mmHg 54%
    12:00 +1°C° 0 mm 2 m/s 750 mmHg 51%
    13:00 +1°C° 0 mm 2 m/s 750 mmHg 49%
    14:00 -1°C° 0 mm 2 m/s 750 mmHg 54%
    15:00 +1°C° 0 mm 1 m/s 750 mmHg 59%
    16:00 0°C° 0 mm 1 m/s 750 mmHg 64%
    17:00 -1°C° 0 mm 1 m/s 750 mmHg 67%
    18:00 -1°C° 0 mm 1 m/s 750 mmHg 70%
    19:00 -2°C° 0 mm 1 m/s 751 mmHg 73%
    20:00 -2°C° 0 mm 1 m/s 751 mmHg 74%
    21:00 -2°C° 0 mm 1 m/s 751 mmHg 75%
    22:00 -3°C° 0 mm 0 m/s 751 mmHg 75%
    23:00 -3°C° 0 mm 0 m/s 751 mmHg 76%

    22 Ianuarie, Marţi

    Timp Temperatura Precipitaţii Vânt Presiune Umiditate
    00:00 -3°C° 0 mm 0 m/s 750 mmHg 76%
    01:00 -3°C° 0 mm 0 m/s 750 mmHg 77%
    02:00 -4°C° 0 mm 0 m/s 750 mmHg 78%
    03:00 -4°C° 0 mm 0 m/s 749 mmHg 79%
    04:00 -4°C° 0 mm 0 m/s 749 mmHg 80%
    05:00 -4°C° 0 mm 0 m/s 749 mmHg 81%
    06:00 -4°C° 0 mm 0 m/s 748 mmHg 83%
    07:00 -5°C° 0 mm 0 m/s 748 mmHg 84%
    08:00 -3°C° 0 mm 1 m/s 748 mmHg 80%
    09:00 -2°C° 0 mm 1 m/s 748 mmHg 76%
    10:00 -1°C° 0 mm 1 m/s 747 mmHg 73%
    11:00 -1°C° 0 mm 1 m/s 747 mmHg 70%
    12:00 0°C° 0 mm 1 m/s 746 mmHg 68%
    13:00 -2°C° 0 mm 2 m/s 745 mmHg 66%
    14:00 -2°C° 0 mm 2 m/s 744 mmHg 72%
    15:00 -3°C° 0 mm 2 m/s 743 mmHg 78%
    16:00 -4°C° 0 mm 2 m/s 743 mmHg 83%
    17:00 -4°C° 0 mm 2 m/s 742 mmHg 86%
    18:00 -4°C° 0 mm 2 m/s 741 mmHg 89%
    19:00 -4°C° 0 mm 2 m/s 741 mmHg 91%
    20:00 -4°C° 0.1 mm 2 m/s 740 mmHg 91%
    21:00 -4°C° 0.1 mm 2 m/s 740 mmHg 90%
    22:00 -4°C° 0.1 mm 2 m/s 739 mmHg 89%
    23:00 -5°C° 0.1 mm 3 m/s 738 mmHg 89%

    23 Ianuarie, Miercuri

    Timp Temperatura Precipitaţii Vânt Presiune Umiditate
    00:00 -5°C° 0.1 mm 3 m/s 737 mmHg 89%
    01:00 -5°C° 0.1 mm 3 m/s 736 mmHg 89%
    02:00 -5°C° 0.3 mm 3 m/s 735 mmHg 89%
    03:00 -5°C° 0.3 mm 3 m/s 735 mmHg 89%
    04:00 -5°C° 0.3 mm 3 m/s 734 mmHg 90%
    05:00 -5°C° 0.3 mm 3 m/s 733 mmHg 90%
    06:00 -5°C° 0.3 mm 3 m/s 732 mmHg 90%
    07:00 -5°C° 0.3 mm 3 m/s 732 mmHg 90%
    08:00 -5°C° 0.3 mm 3 m/s 731 mmHg 90%
    09:00 -4°C° 0.3 mm 3 m/s 731 mmHg 89%
    10:00 -4°C° 0.3 mm 3 m/s 730 mmHg 89%
    11:00 -4°C° 0.4 mm 3 m/s 730 mmHg 90%
    12:00 -2°C° 0.4 mm 3 m/s 729 mmHg 90%
    13:00 -2°C° 0.4 mm 3 m/s 728 mmHg 91%
    14:00 -2°C° 0.3 mm 3 m/s 727 mmHg 92%
    15:00 -1°C° 0.3 mm 3 m/s 727 mmHg 93%
    16:00 -1°C° 0.3 mm 3 m/s 726 mmHg 94%
    17:00 -1°C° 0.3 mm 3 m/s 726 mmHg 94%
    18:00 -1°C° 0.3 mm 3 m/s 725 mmHg 95%
    19:00 -1°C° 0.3 mm 3 m/s 725 mmHg 95%
    20:00 0°C° 0.5 mm 3 m/s 725 mmHg 95%
    21:00 0°C° 0.5 mm 3 m/s 724 mmHg 95%
    22:00 0°C° 0.5 mm 3 m/s 724 mmHg 96%
    23:00 0°C° 0.1 mm 3 m/s 723 mmHg 96%
    Arată mai mult